This is the latest recevied weather packets stored in our database for station/object WD0REW. If no packets are shown the sender has not sent any weather packets the latest 10 day(s).
| Time | Temp. | Humidity | Pressure | Rain* | Wind** | Luminosity | Snow |
|---|---|---|---|---|---|---|---|
| 1777504720 | 16.11° C | 51% | 1017.4 hPa | 0 mm | - | 60 W/m² | - |
| 1777504418 | 16.11° C | 50% | 1017.4 hPa | 0 mm | - | 56 W/m² | - |
| 1777504118 | 16.11° C | 50% | 1017.6 hPa | 0 mm | - | 55 W/m² | - |
| 1777503814 | 16.67° C | 51% | 1017.3 hPa | 0 mm | - | 65 W/m² | - |
| 1777503511 | 16.67° C | 50% | 1017.2 hPa | 0 mm | - | 38 W/m² | - |
| 1777503207 | 16.67° C | 50% | 1017.4 hPa | 0 mm | - | 46 W/m² | - |
| 1777502904 | 16.67° C | 49% | 1017.2 hPa | 0 mm | - | 61 W/m² | - |
| 1777502602 | 16.67° C | 50% | 1017.1 hPa | 0 mm | - | 70 W/m² | - |
| 1777502298 | 16.11° C | 50% | 1017.2 hPa | 0 mm | - | 129 W/m² | - |
| 1777501995 | 16.67° C | 49% | 1017.1 hPa | 0 mm | - | 103 W/m² | - |
| 1777501692 | 16.67° C | 52% | 1017.4 hPa | 0 mm | - | 118 W/m² | - |
| 1777501389 | 16.67° C | 52% | 1017.4 hPa | 0 mm | - | 118 W/m² | - |
| 1777501087 | 16.67° C | 53% | 1017.2 hPa | 0 mm | - | 121 W/m² | - |
| 1777500784 | 16.67° C | 52% | 1017.2 hPa | 0 mm | - | 79 W/m² | - |
| 1777500482 | 16.67° C | 52% | 1017.3 hPa | 0 mm | - | 79 W/m² | - |
| 1777500177 | 16.67° C | 50% | 1017.2 hPa | 0 mm | - | 97 W/m² | - |
| 1777499875 | 17.22° C | 47% | 1017.1 hPa | 0 mm | - | 93 W/m² | - |
| 1777499570 | 17.22° C | 53% | 1016.6 hPa | 0 mm | - | 76 W/m² | - |
| 1777499269 | 16.67° C | 52% | 1016.9 hPa | 0 mm | - | 161 W/m² | - |
| 1777498966 | 17.22° C | 51% | 1017.1 hPa | 0 mm | - | 156 W/m² | - |
| 1777498662 | 17.22° C | 50% | 1017 hPa | 0 mm | - | 173 W/m² | - |
| 1777498358 | 17.22° C | 50% | 1017 hPa | 0 mm | - | 178 W/m² | - |
| 1777498056 | 17.22° C | 49% | 1017.3 hPa | 0 mm | - | 130 W/m² | - |
| 1777497752 | 17.78° C | 48% | 1017.1 hPa | 0 mm | - | 170 W/m² | - |
| 1777497449 | 17.22° C | 53% | 1017 hPa | 0 mm | - | 152 W/m² | - |
* Rain latest hour (hover to see other rain measurements)
** Current wind speed in m/s (hover to see current wind gust speed)